Location: Stara Lesna
(49.1528°N, 20.2911°E)
Time: 18:15:27
(UTC+02:00)

Gbstr 26 Del rocket - Pass Details

Date: 13 July 2020
Orbit: 492 x 1264 km, 51.8° (Epoch: 10 August)

Event Time Altitude Azimuth Distance (km) Brightness Sun altitude
Rises 01:57:50 0° 284° (WNW) 2,611 6.2 -17.2°
Reaches altitude 10° 01:59:54 10° 288° (WNW) 1,767 5.4 -17.1°
Maximum altitude 02:03:50 67° 11° (NNE) 625 3.3 -16.9°
Drops below altitude 10° 02:08:27 10° 95° (E) 2,066 5.9 -16.6°
Sets 02:11:02 0° 98° (E) 3,103 6.8 -16.5°
